Location: Peterborough
(44.3091°N, 78.3197°W)
Time: 01:46:45
(UTC-04:00)

Courier 1B - Pass Details

Date: 24 February 2024
Orbit: 962 x 1208 km, 28.3° (Epoch: 17 April)

Event Time Altitude Azimuth Distance (km) Brightness Sun altitude
Exits shadow 03:42:39 11° 148° (SSE) 2,679 9.8 -35.4°
Drops below altitude 10° 03:43:06 10° 145° (SE) 2,780 10.0 -35.3°
Sets 03:46:44 0° 128° (SE) 3,776 10.9 -34.7°
